Location: Andiroba
(19.8650°S, 43.9258°W)
Time: 08:29:15
(UTC+00:00)

Cosmos 1447 Rocket - Pass Details

Date: 20 September 2024
Orbit: 954 x 995 km, 82.9° (Epoch: 12 October)

Event Time Altitude Azimuth Distance (km) Brightness Sun altitude
Rises 06:17:36 0° 153° (SSE) 3,678 8.0 -35.6°
Reaches altitude 10° 06:22:14 10° 122° (ESE) 2,712 7.5 -34.6°
Maximum altitude 06:24:18 12° 102° (ESE) 2,580 7.5 -34.1°
Drops below altitude 10° 06:26:21 10° 82° (E) 2,695 7.5 -33.6°
Sets 06:30:51 0° 51° (NE) 3,624 8.0 -32.6°
